When you browse on this site, cookies collect data to enhance your experience and personalize the content and advertising you see.
Visit our Privacy Policy to learn more. By continuing to use the site, you agree to this use of cookies and data.
  • In Sweden
  • List of Countries
  • For 7 days
  • Water Temperature
  • Weather Map
  • Weather Widgets
  • user-avatar
    Login

    Hourly Weather Kagul

    Today, 26 February, Wednesday

    Time Temperature Precipitation Wind Pressure Humidity
    00:00 +7°C° 0 mm 5 mps 750 mmHg 55%
    01:00 +7°C° 0 mm 4 mps 750 mmHg 59%
    02:00 +6°C° 0 mm 4 mps 749 mmHg 62%
    03:00 +7°C° 0 mm 3 mps 749 mmHg 63%
    04:00 +7°C° 0 mm 3 mps 748 mmHg 63%
    05:00 +5°C° 0 mm 3 mps 748 mmHg 64%
    06:00 +5°C° 0 mm 3 mps 748 mmHg 62%
    07:00 +7°C° 0 mm 3 mps 747 mmHg 61%
    08:00 +7°C° 0 mm 3 mps 747 mmHg 60%
    09:00 +9°C° 0 mm 3 mps 747 mmHg 55%
    10:00 +10°C° 0 mm 3 mps 747 mmHg 51%
    11:00 +12°C° 0 mm 4 mps 746 mmHg 46%
    12:00 +13°C° 0 mm 4 mps 746 mmHg 44%
    13:00 +15°C° 0 mm 5 mps 745 mmHg 41%
    14:00 +17°C° 0 mm 6 mps 745 mmHg 39%
    15:00 +17°C° 0 mm 6 mps 744 mmHg 39%
    16:00 +17°C° 0 mm 7 mps 744 mmHg 39%
    17:00 +17°C° 0 mm 7 mps 743 mmHg 40%
    18:00 +15°C° 0 mm 7 mps 743 mmHg 44%
    19:00 +14°C° 0 mm 7 mps 744 mmHg 49%
    20:00 +12°C° 0 mm 7 mps 744 mmHg 54%
    21:00 +13°C° 0 mm 6 mps 743 mmHg 57%
    22:00 +11°C° 0 mm 6 mps 743 mmHg 60%
    23:00 +12°C° 0 mm 5 mps 743 mmHg 63%

    Tomorrow, 27 February, Thursday

    Time Temperature Precipitation Wind Pressure Humidity
    00:00 +11°C° 0 mm 4 mps 743 mmHg 67%
    01:00 +11°C° 0 mm 4 mps 743 mmHg 71%
    02:00 +10°C° 0 mm 4 mps 743 mmHg 75%
    03:00 +9°C° 0 mm 5 mps 742 mmHg 75%
    04:00 +9°C° 0 mm 5 mps 742 mmHg 74%
    05:00 +9°C° 0 mm 6 mps 742 mmHg 73%
    06:00 +9°C° 0 mm 6 mps 742 mmHg 71%
    07:00 +9°C° 0 mm 6 mps 743 mmHg 69%
    08:00 +9°C° 0 mm 7 mps 743 mmHg 67%
    09:00 +10°C° 0 mm 7 mps 743 mmHg 59%
    10:00 +12°C° 0 mm 7 mps 743 mmHg 51%
    11:00 +15°C° 0 mm 8 mps 743 mmHg 42%
    12:00 +13°C° 0 mm 8 mps 743 mmHg 42%
    13:00 +14°C° 0 mm 7 mps 744 mmHg 42%
    14:00 +14°C° 0 mm 7 mps 744 mmHg 42%
    15:00 +10°C° 0.4 mm 7 mps 744 mmHg 56%
    16:00 +7°C° 0.4 mm 8 mps 744 mmHg 69%
    17:00 +4°C° 0.4 mm 8 mps 744 mmHg 83%
    18:00 +2°C° 1.1 mm 9 mps 745 mmHg 84%
    19:00 +1°C° 1.1 mm 9 mps 746 mmHg 85%
    20:00 +1°C° 1.1 mm 10 mps 746 mmHg 87%
    21:00 +1°C° 0.2 mm 8 mps 747 mmHg 81%
    22:00 +3°C° 0.2 mm 7 mps 748 mmHg 74%
    23:00 +3°C° 0.2 mm 5 mps 749 mmHg 68%

    Day after tomorrow, 28 February, Friday

    Time Temperature Precipitation Wind Pressure Humidity
    00:00 +4°C° 0 mm 4 mps 750 mmHg 68%
    01:00 +3°C° 0 mm 4 mps 750 mmHg 68%
    02:00 +2°C° 0 mm 3 mps 751 mmHg 68%
    03:00 +2°C° 0 mm 3 mps 751 mmHg 69%
    04:00 +2°C° 0 mm 3 mps 751 mmHg 70%
    05:00 +3°C° 0 mm 2 mps 751 mmHg 71%
    06:00 +2°C° 0 mm 3 mps 752 mmHg 71%
    07:00 +2°C° 0 mm 3 mps 752 mmHg 71%
    08:00 +1°C° 0 mm 4 mps 752 mmHg 71%
    09:00 +3°C° 0 mm 5 mps 752 mmHg 63%
    10:00 +4°C° 0 mm 6 mps 752 mmHg 55%
    11:00 +6°C° 0 mm 7 mps 751 mmHg 47%
    12:00 +8°C° 0 mm 7 mps 751 mmHg 43%
    13:00 +7°C° 0 mm 8 mps 750 mmHg 40%
    14:00 +8°C° 0 mm 9 mps 749 mmHg 36%
    15:00 +9°C° 0 mm 8 mps 749 mmHg 35%
    16:00 +9°C° 0 mm 7 mps 749 mmHg 35%
    17:00 +9°C° 0 mm 6 mps 749 mmHg 34%
    18:00 +8°C° 0.1 mm 6 mps 749 mmHg 45%
    19:00 +7°C° 0.1 mm 6 mps 749 mmHg 56%
    20:00 +5°C° 0.1 mm 6 mps 750 mmHg 66%
    21:00 +6°C° 0 mm 5 mps 750 mmHg 66%
    22:00 +5°C° 0 mm 4 mps 750 mmHg 65%
    23:00 +5°C° 0 mm 3 mps 750 mmHg 65%

    29 February, Saturday

    Time Temperature Precipitation Wind Pressure Humidity
    00:00 +4°C° 0 mm 4 mps 750 mmHg 65%
    01:00 +3°C° 0 mm 5 mps 750 mmHg 64%
    02:00 +2°C° 0 mm 6 mps 750 mmHg 64%
    03:00 +2°C° 0 mm 7 mps 751 mmHg 66%
    04:00 +2°C° 0 mm 7 mps 751 mmHg 67%
    05:00 0°C° 0 mm 8 mps 752 mmHg 69%
    06:00 0°C° 0 mm 8 mps 753 mmHg 67%
    07:00 0°C° 0 mm 9 mps 753 mmHg 66%
    08:00 0°C° 0 mm 10 mps 754 mmHg 64%
    09:00 +1°C° 0 mm 10 mps 754 mmHg 59%
    10:00 +2°C° 0 mm 10 mps 755 mmHg 53%
    11:00 +3°C° 0 mm 10 mps 755 mmHg 47%
    12:00 +5°C° 0 mm 10 mps 755 mmHg 44%
    13:00 +5°C° 0 mm 9 mps 756 mmHg 41%
    14:00 +6°C° 0 mm 8 mps 756 mmHg 38%
    15:00 +6°C° 0 mm 7 mps 756 mmHg 38%
    16:00 +7°C° 0 mm 6 mps 756 mmHg 37%
    17:00 +7°C° 0 mm 5 mps 757 mmHg 37%
    18:00 +6°C° 0 mm 4 mps 757 mmHg 42%
    19:00 +6°C° 0 mm 2 mps 758 mmHg 48%
    20:00 +6°C° 0 mm 1 mps 758 mmHg 53%
    21:00 +5°C° 0 mm 1 mps 759 mmHg 55%
    22:00 +4°C° 0 mm 0 mps 759 mmHg 56%
    23:00 +4°C° 0 mm 0 mps 759 mmHg 57%

    1 March, Sunday

    Time Temperature Precipitation Wind Pressure Humidity
    00:00 +4°C° 0 mm 1 mps 759 mmHg 58%
    01:00 +4°C° 0 mm 1 mps 759 mmHg 59%
    02:00 +4°C° 0 mm 1 mps 759 mmHg 60%
    03:00 +2°C° 0 mm 2 mps 759 mmHg 61%
    04:00 +2°C° 0 mm 2 mps 759 mmHg 62%
    05:00 +2°C° 0 mm 2 mps 759 mmHg 63%
    06:00 +2°C° 0 mm 2 mps 759 mmHg 62%
    07:00 +1°C° 0 mm 3 mps 759 mmHg 61%
    08:00 +2°C° 0 mm 3 mps 759 mmHg 60%
    09:00 +4°C° 0 mm 4 mps 759 mmHg 53%
    10:00 +6°C° 0 mm 5 mps 759 mmHg 47%
    11:00 +8°C° 0 mm 5 mps 759 mmHg 40%
    12:00 +9°C° 0 mm 5 mps 758 mmHg 36%
    13:00 +10°C° 0 mm 5 mps 757 mmHg 33%
    14:00 +11°C° 0 mm 6 mps 757 mmHg 30%
    15:00 +10°C° 0 mm 5 mps 756 mmHg 32%
    16:00 +10°C° 0 mm 5 mps 756 mmHg 35%
    17:00 +11°C° 0 mm 4 mps 756 mmHg 37%
    18:00 +10°C° 0 mm 4 mps 756 mmHg 45%
    19:00 +8°C° 0 mm 4 mps 756 mmHg 52%
    20:00 +6°C° 0 mm 4 mps 756 mmHg 60%
    21:00 +6°C° 0 mm 4 mps 756 mmHg 61%
    22:00 +6°C° 0 mm 4 mps 755 mmHg 63%
    23:00 +6°C° 0 mm 4 mps 755 mmHg 65%

    2 March, Monday

    Time Temperature Precipitation Wind Pressure Humidity
    00:00 +6°C° 0 mm 5 mps 755 mmHg 67%
    01:00 +6°C° 0 mm 5 mps 755 mmHg 69%
    02:00 +6°C° 0 mm 5 mps 754 mmHg 72%
    03:00 +6°C° 0 mm 5 mps 754 mmHg 74%
    04:00 +5°C° 0 mm 5 mps 754 mmHg 77%
    05:00 +5°C° 0 mm 5 mps 753 mmHg 79%
    06:00 +6°C° 0 mm 5 mps 753 mmHg 79%
    07:00 +5°C° 0 mm 6 mps 753 mmHg 79%
    08:00 +5°C° 0 mm 6 mps 753 mmHg 78%
    09:00 +7°C° 0 mm 6 mps 753 mmHg 73%
    10:00 +9°C° 0 mm 7 mps 752 mmHg 68%
    11:00 +10°C° 0 mm 7 mps 752 mmHg 64%
    12:00 +11°C° 0 mm 7 mps 752 mmHg 58%
    13:00 +13°C° 0 mm 6 mps 751 mmHg 51%
    14:00 +14°C° 0 mm 6 mps 751 mmHg 45%
    15:00 +14°C° 0 mm 6 mps 751 mmHg 46%
    16:00 +14°C° 0 mm 5 mps 750 mmHg 47%
    17:00 +14°C° 0 mm 5 mps 750 mmHg 47%
    18:00 +12°C° 0 mm 4 mps 750 mmHg 53%
    19:00 +11°C° 0 mm 4 mps 750 mmHg 58%
    20:00 +10°C° 0 mm 3 mps 750 mmHg 64%
    21:00 +10°C° 0 mm 3 mps 751 mmHg 67%
    22:00 +9°C° 0 mm 3 mps 751 mmHg 71%
    23:00 +9°C° 0 mm 3 mps 751 mmHg 75%
    Show more